Weather in Samsonovka

Russia / Samara Oblast     53°53′14″N   51°30′31″E
temp.,
°C
wind,
m/s
gust,
m/s
humid.,
%
clouds,
%
prec.,
mm/h
press.,
hPa
HPBL,
m
28 february, sun
sun2801:00−12nw369695 0.0 999171
04:00−13nnw499597 0.1 1000258
07:00−13nnw61093100 0.1 1002323
10:00−12nnw6993100 0.1 1004401
13:00−11nnw6991100 0.1 1006491
16:00−11nnw5891100 0.1 1008543
19:00−13nnw4994100 0.1 1011330
22:00−16nw379695 0.2 1013176
1 march, mon
mon101:00−18nw239892 0.0 101537
04:00−20nw239984 0.0 101733
07:00−22nw239976 0.0 101822
10:00−19nnw369544 0.0 1021230
13:00−16nw349249 0.0 1021288
16:00−16nw359267 0.0 1022338
19:00−20wnw2210070 0.0 102120
22:00−21sw2210051 0.0 102120
2 march, tue
tue201:00−21ssw339961 0.0 101929
04:00−19s489974 0.0 1016154
07:00−16s51198100 0.0 1012271
10:00−13ssw71295100 0.4 1009402
13:00−8ssw71394100 0.9 1006581
16:00−5ssw71395100 1.7 1003668
19:00−4ssw51296100 1.4 1000571
22:00−3ssw41097100 2.6 999439
3 march, wed
wed301:00−2w4897100 0.5 998340
04:00−3w489699 0.7 998313
07:00−3wnw4995100 0.1 999430
10:00−4nw5794100 0.2 1001399
13:00−3nw4694100 0.0 1002420
16:00−2nw5791100 0.1 1003665
19:00−4nw4994100 0.1 1004442
22:00−5nw499698 0.2 1006265
4 march, thu
thu401:00−6nw5119488 0.1 1007365
04:00−9nw5109587 0.1 1009269
07:00−12nw369790 0.0 1011100
10:00−10wnw369589 0.1 1013251
13:00−7wsw589393 0.0 1012388
16:00−6sw6118993 0.0 1011591
19:00−6sw81493100 0.1 1009646
22:00−4sw91694100 0.4 1008770